Preview of NWS' New Version of Forecast
This preview is not operational and should not be used for support decisions.

Regional Weather Roundup (RWR)

Issued by National Weather Service (NWS)

                            
000
ASUS43 KLSX 181657
RWRMO 

WEATHER SUMMARY FOR MISSOURI
NATIONAL WEATHER SERVICE SPRINGFIELD MO
1200 PM CDT THU JUL 18 2019

NOTE: "FAIR" INDICATES FEW OR NO CLOUDS BELOW 12,000 FEET WITH NO
       SIGNIFICANT WEATHER AND/OR OBSTRUCTIONS TO VISIBILITY.
       CURRENT SKY AND/OR WEATHER CONDITIONS ARE NOT AVAILABLE FOR
       CHILLICOTHE AND FARMINGTON.

MOZ001>031-035>038-043-044-053-054-181800-
...NORTHERN AND WESTERN MISSOURI...
  
CITY           SKY/WX    TMP DP  RH WIND       PRES   REMARKS
KANSAS CTY INT PTSUNNY   89  76  65 S15       29.83F HX 100           
LEE'S SUMMIT   LGT RAIN  90  74  59 S15G25    29.86F HX  99           
ST JOSEPH      SUNNY     90  73  57 SW15G25   29.80S HX  98           
CHILLICOTHE      N/A     92  74  55 S14G22    29.83S HX 101           
     
$$
MOZ066>068-077>081-088>096-101>105-181800-
...SOUTHWEST MISSOURI...
  
CITY           SKY/WX    TMP DP  RH WIND       PRES   REMARKS
SPRINGFIELD    MOSUNNY   90  74  59 SW17G26   29.96F HX  99           
JOPLIN         MOSUNNY   88  75  65 SW20      29.93F HX  97           
BRANSON        MOSUNNY   88  73  62 SW7       30.02R HX  96           
               
$$
MOZ032>034-039>042-045>050-055>058-069>072-181800-
...CENTRAL MISSOURI...  
  
CITY           SKY/WX    TMP DP  RH WIND       PRES   REMARKS
COLUMBIA       SUNNY     91  74  57 SW14G23   29.91S HX 100           
ROLLA          MOSUNNY   88  76  67 SW13G21   29.96F HX  99           
SEDALIA        SUNNY     86  74  67 SW14G28   29.91S HX  94           
               
$$
MOZ051-052-059>065-181800-
...EAST CENTRAL MISSOURI...
  
CITY           SKY/WX    TMP DP  RH WIND       PRES   REMARKS
ST LOUIS INTL  MOSUNNY   92  73  53 SW17G23   29.93S HX 100           
                   
$$
MOZ072>076-082>087-097>100-106>115-181800-
...SOUTH CENTRAL AND SOUTHEAST MISSOURI...
  
CITY           SKY/WX    TMP DP  RH WIND       PRES   REMARKS
CAPE GIRARDEAU FAIR      83  76  79 S6        29.99S HX  91           
POPLAR BLUFF   PTSUNNY   81  78  91 S6        29.99S                  
                                       
$$